TimeCST,TemperatureF,Dew PointF,Humidity,Sea Level PressureIn,VisibilityMPH,Wind Direction,Wind SpeedMPH,Gust SpeedMPH,PrecipitationIn,Events,Conditions,WindDirDegrees,DateUTC
12:53 AM,27.0,19.9,75,30.27,10.0,Calm,Calm,-,N/A,,Clear,0,2012-01-14 06:53:00
1:53 AM,26.1,21.0,81,30.29,10.0,Calm,Calm,-,N/A,,Clear,0,2012-01-14 07:53:00
2:53 AM,26.1,21.9,84,30.30,10.0,Calm,Calm,-,N/A,,Clear,0,2012-01-14 08:53:00
3:53 AM,25.0,21.0,85,30.30,10.0,Calm,Calm,-,N/A,,Clear,0,2012-01-14 09:53:00
4:53 AM,25.0,21.0,85,30.30,10.0,Calm,Calm,-,N/A,,Clear,0,2012-01-14 10:53:00
5:53 AM,24.1,19.9,84,30.32,10.0,Calm,Calm,-,N/A,,Clear,0,2012-01-14 11:53:00
6:53 AM,24.1,21.0,88,30.33,10.0,Calm,Calm,-,N/A,,Clear,0,2012-01-14 12:53:00
7:53 AM,28.0,24.1,85,30.33,10.0,Calm,Calm,-,N/A,,Clear,0,2012-01-14 13:53:00
8:53 AM,37.9,21.0,51,30.33,10.0,SW,5.8,-,N/A,,Clear,220,2012-01-14 14:53:00
9:53 AM,44.1,18.0,35,30.32,10.0,SW,6.9,-,N/A,,Clear,230,2012-01-14 15:53:00
10:53 AM,48.9,17.1,28,30.28,10.0,SW,11.5,-,N/A,,Clear,230,2012-01-14 16:53:00
11:53 AM,51.1,19.0,28,30.25,10.0,WSW,13.8,21.9,N/A,,Clear,240,2012-01-14 17:53:00
12:53 PM,54.0,21.0,28,30.20,10.0,SSW,17.3,25.3,N/A,,Clear,210,2012-01-14 18:53:00
1:53 PM,55.9,21.9,27,30.17,10.0,SW,16.1,28.8,N/A,,Clear,220,2012-01-14 19:53:00
2:53 PM,55.9,21.0,26,30.15,10.0,SW,12.7,34.5,N/A,,Clear,230,2012-01-14 20:53:00
3:53 PM,55.0,21.0,27,30.14,10.0,SSW,19.6,24.2,N/A,,Clear,210,2012-01-14 21:53:00
4:53 PM,54.0,21.0,28,30.15,10.0,SW,17.3,-,N/A,,Clear,220,2012-01-14 22:53:00
5:53 PM,52.0,23.0,32,30.18,10.0,SW,9.2,-,N/A,,Clear,220,2012-01-14 23:53:00
6:53 PM,51.1,23.0,33,30.20,10.0,WSW,11.5,-,N/A,,Clear,240,2012-01-15 00:53:00
7:53 PM,48.9,24.1,38,30.23,10.0,WSW,6.9,-,N/A,,Clear,250,2012-01-15 01:53:00
8:53 PM,46.0,24.1,42,30.25,10.0,West,5.8,-,N/A,,Clear,260,2012-01-15 02:53:00
9:53 PM,44.6,24.8,46,30.26,10.0,SW,4.6,-,N/A,,Clear,230,2012-01-15 03:53:00
10:53 PM,37.9,27.0,65,30.28,10.0,Calm,Calm,-,N/A,,Clear,0,2012-01-15 04:53:00
11:53 PM,39.9,27.0,60,30.30,10.0,WNW,3.5,-,N/A,,Clear,300,2012-01-15 05:53:00